Meteo pe oră la Aberdare

Astăzi, 26 Iulie, Luni

Timp Temperatura Precipitaţii Vânt Presiune Umiditate
00:00 +13°C° 0 mm 1 m/s 725 mmHg 90%
01:00 +13°C° 0 mm 1 m/s 725 mmHg 91%
02:00 +12°C° 0 mm 1 m/s 725 mmHg 91%
03:00 +12°C° 0 mm 1 m/s 725 mmHg 91%
04:00 +12°C° 0 mm 1 m/s 725 mmHg 89%
05:00 +13°C° 0 mm 1 m/s 725 mmHg 88%
06:00 +14°C° 0 mm 1 m/s 725 mmHg 87%
07:00 +15°C° 0 mm 1 m/s 725 mmHg 81%
08:00 +18°C° 0 mm 1 m/s 725 mmHg 75%
09:00 +20°C° 0 mm 1 m/s 725 mmHg 69%
10:00 +20°C° 0 mm 2 m/s 725 mmHg 68%
11:00 +20°C° 0 mm 2 m/s 725 mmHg 66%
12:00 +21°C° 0 mm 3 m/s 725 mmHg 65%
13:00 +21°C° 0.2 mm 3 m/s 725 mmHg 67%
14:00 +21°C° 0.2 mm 4 m/s 725 mmHg 70%
15:00 +21°C° 0.2 mm 4 m/s 725 mmHg 73%
16:00 +20°C° 0.3 mm 4 m/s 724 mmHg 77%
17:00 +19°C° 0.3 mm 3 m/s 724 mmHg 81%
18:00 +18°C° 0.3 mm 3 m/s 724 mmHg 85%
19:00 +17°C° 0.1 mm 2 m/s 724 mmHg 88%
20:00 +16°C° 0.1 mm 2 m/s 724 mmHg 91%
21:00 +15°C° 0.1 mm 2 m/s 724 mmHg 94%
22:00 +14°C° 0.1 mm 2 m/s 724 mmHg 94%
23:00 +14°C° 0.1 mm 2 m/s 724 mmHg 94%

Mâine, 27 Iulie, Marţi

Timp Temperatura Precipitaţii Vânt Presiune Umiditate
00:00 +14°C° 0.1 mm 2 m/s 724 mmHg 94%
01:00 +14°C° 0.3 mm 2 m/s 724 mmHg 94%
02:00 +14°C° 0.3 mm 2 m/s 723 mmHg 95%
03:00 +13°C° 0.3 mm 2 m/s 723 mmHg 95%
04:00 +13°C° 0.5 mm 2 m/s 723 mmHg 96%
05:00 +13°C° 0.5 mm 3 m/s 723 mmHg 96%
06:00 +13°C° 0.5 mm 3 m/s 722 mmHg 97%
07:00 +13°C° 0.1 mm 4 m/s 722 mmHg 94%
08:00 +13°C° 0.1 mm 4 m/s 723 mmHg 92%
09:00 +14°C° 0.1 mm 5 m/s 723 mmHg 90%
10:00 +14°C° 0.1 mm 5 m/s 723 mmHg 87%
11:00 +14°C° 0.1 mm 6 m/s 723 mmHg 84%
12:00 +15°C° 0.1 mm 6 m/s 723 mmHg 81%
13:00 +15°C° 0.2 mm 6 m/s 723 mmHg 80%
14:00 +15°C° 0.2 mm 7 m/s 723 mmHg 79%
15:00 +15°C° 0.2 mm 7 m/s 723 mmHg 78%
16:00 +15°C° 0.1 mm 7 m/s 723 mmHg 81%
17:00 +14°C° 0.1 mm 7 m/s 723 mmHg 83%
18:00 +14°C° 0.1 mm 6 m/s 723 mmHg 86%
19:00 +13°C° 0 mm 6 m/s 723 mmHg 87%
20:00 +12°C° 0 mm 5 m/s 723 mmHg 89%
21:00 +12°C° 0 mm 4 m/s 724 mmHg 91%
22:00 +11°C° 0 mm 4 m/s 723 mmHg 92%
23:00 +11°C° 0 mm 3 m/s 723 mmHg 93%

Poimâine, 28 Iulie, Miercuri

Timp Temperatura Precipitaţii Vânt Presiune Umiditate
00:00 +10°C° 0 mm 3 m/s 723 mmHg 94%
01:00 +10°C° 0 mm 2 m/s 723 mmHg 94%
02:00 +10°C° 0 mm 2 m/s 723 mmHg 94%
03:00 +9°C° 0 mm 2 m/s 723 mmHg 95%
04:00 +10°C° 0.1 mm 2 m/s 723 mmHg 94%
05:00 +10°C° 0.1 mm 2 m/s 723 mmHg 93%
06:00 +12°C° 0.1 mm 2 m/s 723 mmHg 93%
07:00 +12°C° 0.2 mm 3 m/s 723 mmHg 87%
08:00 +13°C° 0.2 mm 4 m/s 723 mmHg 81%
09:00 +14°C° 0.2 mm 6 m/s 723 mmHg 75%
10:00 +15°C° 0.3 mm 6 m/s 723 mmHg 73%
11:00 +15°C° 0.3 mm 7 m/s 723 mmHg 71%
12:00 +15°C° 0.3 mm 8 m/s 723 mmHg 69%
13:00 +15°C° 0.2 mm 8 m/s 723 mmHg 68%
14:00 +15°C° 0.2 mm 8 m/s 723 mmHg 67%
15:00 +15°C° 0.2 mm 8 m/s 723 mmHg 66%
16:00 +15°C° 0.1 mm 8 m/s 723 mmHg 69%
17:00 +13°C° 0.1 mm 8 m/s 723 mmHg 72%
18:00 +14°C° 0.1 mm 7 m/s 723 mmHg 75%
19:00 +13°C° 0.1 mm 6 m/s 723 mmHg 79%
20:00 +11°C° 0.1 mm 6 m/s 723 mmHg 83%
21:00 +10°C° 0.1 mm 5 m/s 723 mmHg 86%
22:00 +9°C° 0.1 mm 5 m/s 723 mmHg 88%
23:00 +10°C° 0.1 mm 4 m/s 723 mmHg 89%

29 Iulie, Joi

Timp Temperatura Precipitaţii Vânt Presiune Umiditate
00:00 +10°C° 0.1 mm 4 m/s 723 mmHg 91%
01:00 +10°C° 0.3 mm 4 m/s 722 mmHg 91%
02:00 +10°C° 0.3 mm 3 m/s 722 mmHg 91%
03:00 +10°C° 0.3 mm 3 m/s 722 mmHg 91%
04:00 +10°C° 0.6 mm 3 m/s 722 mmHg 91%
05:00 +10°C° 0.6 mm 3 m/s 722 mmHg 91%
06:00 +11°C° 0.6 mm 3 m/s 722 mmHg 90%
07:00 +11°C° 0.4 mm 4 m/s 722 mmHg 87%
08:00 +12°C° 0.4 mm 5 m/s 722 mmHg 84%
09:00 +13°C° 0.4 mm 6 m/s 722 mmHg 81%
10:00 +14°C° 0.2 mm 7 m/s 722 mmHg 75%
11:00 +15°C° 0.2 mm 7 m/s 722 mmHg 69%
12:00 +16°C° 0.2 mm 8 m/s 722 mmHg 63%
13:00 +13°C° 0.2 mm 8 m/s 721 mmHg 72%
14:00 +12°C° 0.2 mm 8 m/s 721 mmHg 81%
15:00 +11°C° 0.2 mm 9 m/s 721 mmHg 90%
16:00 +12°C° 0.5 mm 9 m/s 721 mmHg 90%
17:00 +12°C° 0.5 mm 9 m/s 720 mmHg 91%
18:00 +13°C° 0.5 mm 9 m/s 720 mmHg 92%
19:00 +12°C° 0.2 mm 8 m/s 721 mmHg 92%
20:00 +12°C° 0.2 mm 8 m/s 721 mmHg 93%
21:00 +12°C° 0.2 mm 8 m/s 721 mmHg 93%
22:00 +11°C° 0.1 mm 7 m/s 721 mmHg 93%
23:00 +11°C° 0.1 mm 7 m/s 722 mmHg 93%

30 Iulie, Vineri

Timp Temperatura Precipitaţii Vânt Presiune Umiditate
00:00 +11°C° 0.1 mm 6 m/s 722 mmHg 93%
01:00 +11°C° 0 mm 6 m/s 722 mmHg 93%
02:00 +10°C° 0 mm 6 m/s 722 mmHg 94%
03:00 +10°C° 0 mm 5 m/s 722 mmHg 94%
04:00 +10°C° 0 mm 5 m/s 722 mmHg 93%
05:00 +10°C° 0 mm 5 m/s 722 mmHg 92%
06:00 +11°C° 0 mm 4 m/s 722 mmHg 91%
07:00 +13°C° 0 mm 5 m/s 723 mmHg 86%
08:00 +14°C° 0 mm 6 m/s 723 mmHg 81%
09:00 +15°C° 0 mm 6 m/s 724 mmHg 76%
10:00 +16°C° 0.1 mm 7 m/s 724 mmHg 73%
11:00 +16°C° 0.1 mm 7 m/s 724 mmHg 70%
12:00 +17°C° 0.1 mm 7 m/s 724 mmHg 68%
13:00 +17°C° 0.1 mm 7 m/s 724 mmHg 68%
14:00 +17°C° 0.1 mm 7 m/s 725 mmHg 68%
15:00 +16°C° 0.1 mm 7 m/s 725 mmHg 68%
16:00 +16°C° 0 mm 6 m/s 725 mmHg 71%
17:00 +15°C° 0 mm 6 m/s 725 mmHg 74%
18:00 +15°C° 0 mm 5 m/s 725 mmHg 77%
19:00 +14°C° 0 mm 4 m/s 725 mmHg 82%
20:00 +12°C° 0 mm 4 m/s 725 mmHg 87%
21:00 +11°C° 0 mm 3 m/s 725 mmHg 93%
22:00 +11°C° 0 mm 3 m/s 725 mmHg 93%
23:00 +11°C° 0 mm 3 m/s 725 mmHg 93%

31 Iulie, Sâmbătă

Timp Temperatura Precipitaţii Vânt Presiune Umiditate
00:00 +11°C° 0 mm 3 m/s 725 mmHg 93%
01:00 +12°C° 0 mm 2 m/s 725 mmHg 93%
02:00 +12°C° 0 mm 2 m/s 725 mmHg 93%
03:00 +12°C° 0 mm 2 m/s 725 mmHg 93%
04:00 +12°C° 0 mm 2 m/s 725 mmHg 93%
05:00 +12°C° 0 mm 2 m/s 725 mmHg 93%
06:00 +13°C° 0 mm 1 m/s 725 mmHg 92%
07:00 +13°C° 0 mm 2 m/s 725 mmHg 89%
08:00 +14°C° 0 mm 2 m/s 725 mmHg 86%
09:00 +14°C° 0 mm 3 m/s 726 mmHg 83%
10:00 +16°C° 0.2 mm 3 m/s 726 mmHg 82%
11:00 +17°C° 0.2 mm 4 m/s 726 mmHg 80%
12:00 +17°C° 0.2 mm 4 m/s 726 mmHg 79%
13:00 +16°C° 0.3 mm 5 m/s 726 mmHg 78%
14:00 +17°C° 0.3 mm 5 m/s 726 mmHg 77%
15:00 +17°C° 0.3 mm 5 m/s 726 mmHg 75%
16:00 +16°C° 0.2 mm 5 m/s 726 mmHg 77%
17:00 +16°C° 0.2 mm 5 m/s 726 mmHg 79%
18:00 +17°C° 0.2 mm 4 m/s 726 mmHg 81%
19:00 +14°C° 0 mm 3 m/s 726 mmHg 85%
20:00 +13°C° 0 mm 2 m/s 726 mmHg 88%
21:00 +12°C° 0 mm 2 m/s 727 mmHg 92%
22:00 +12°C° 0 mm 1 m/s 727 mmHg 91%
23:00 +12°C° 0 mm 1 m/s 727 mmHg 90%
Arată mai mult

Formular de consimțământ

Meteoprog și furnizorii noștri de servicii pot stoca și accesa date personale, precum cookies, identificatori de dispozitiv sau alte tehnologii similare pe dispozitivul dumneavoastră și procesa astfel de date pentru a personaliza conținutul și reclamele, dar și pentru a oferi caracteristici de social media și pentru a analiza traficul.

  • Stocarea și/sau accesarea informațiilor pe dispozitivul dumneavoastră

    Cookies, identificatori de dispozitiv sau alte informații pot fi stocate sau accesate pe dispozitiv în scopurile indicate mai sus.

  • Reclame și conținut personalizat, evaluarea reclamelor și a conținutului, informații despre audiențe și dezvoltarea produselor

    Reclamele și conținutul pot fi personalizate pe baza unui profil. Pot fi adăugate date suplimentare pentru a personaliza mai bine reclamele și conținutul. Performanța reclamelor și conținutului poate fi măsurată. Pot fi obținute informații despre utilizatorii care au văzut reclamele și conținutul. Aceste date pot fi utilizate pentru a dezvolta sau îmbunătăți experiența utilizatorilor, sistemele și software-ul.

Dând clic pe ‘Sunt de acord’, permiteți utilizarea cookie-urilor menționate, a identificatorilor de dispozitiv, balizelor web sau altor tehnologii similare. Setările pot fi modificate din browser-ul dispozitivului dumneavoastră.

În anumite scopuri, interesele legitime pot prima asupra consimțământului. Puteți citi mai multe informații în acest sens în Politica privind Confidențialitatea Datelor și Cookie.